User: anonymous   Login
Location: Unspecified
(0.0000°N, 0.0000°E)
Time: 09:27:37
(UTC+01:00)
Language:

Cosmos 1933 - Orbit

View from above orbital plane
View from above orbital plane
View from above satellite
View from above satellite

Ground track
Ground track

The orbit data is extracted from the following two-line orbital elements,

1 18958U 88020A   14302.57726346  .00003455  00000-0  26820-3 0  4688
2 18958 082.5295 310.7102 0010818 314.7211 045.3132 15.01028607447132
Epoch (UTC): 29 October 2014 13:51:15
Eccentricity: 0.0010818
inclination: 82.5295°
perigee height: 556 km
apogee height: 571 km
right ascension of ascending node: 310.7102°
argument of perigee: 314.7211°
revolutions per day: 15.01028607
mean anomaly at epoch: 45.3132°
orbit number at epoch: 44713

The dashed part of the orbit path shows where the satellite is in the earth's shadow,  

DLR